This demonstration page uses our WeatherBlox Daily Observations layout. Learn more.

Left ArrowRight Arrow

Hourly Observations for March 25, 2020

Temp ( °F °C ) Dew Point ( °F °C ) Humidity (%) Winds ( mph kmh ) Pressure ( in mb ) Visibility ( mi km ) Precip ( " mm )
12:53 am 00:53 Partly Cloudy 27 -2.8 23 -5 85 85 E 15 24 29.90 1012 10 16 N/A
1:53 am 01:53 Clear 26 -3.3 22 -5.6 84 84 ENE 15 24 29.87 1012 10 16 N/A
2:53 am 02:53 Clear 26 -3.3 23 -5 88 88 E 14 22 29.87 1011 10 16 N/A
3:53 am 03:53 Clear 26 -3.3 23 -5 88 88 E 12 19 29.86 1011 10 16 N/A
4:53 am 04:53 Mostly Cloudy 26 -3.3 23 -5 88 88 ENE 8 13 29.86 1011 10 16 N/A
5:53 am 05:53 Mostly Clear 25 -3.9 22 -5.6 88 88 N N/A 29.88 1012 10 16 N/A
6:19 am 06:19 Cloudy 26 -3.3 22 -5.6 84 84 N N/A 29.94 1014 10 16 N/A
6:53 am 06:53 Cloudy 26 -3.3 23 -5 88 88 N N/A 29.88 1012 10 16 N/A
7:53 am 07:53 Cloudy 27 -2.8 23 -5 85 85 N N/A 29.89 1012 10 16 0.00 0.00
8:18 am 08:18 Cloudy 28 -2.2 23 -5 81 81 N N/A 29.93 1014 10 16 N/A
8:53 am 08:53 Cloudy 28 -2.2 24 -4.4 85 85 N N/A 29.90 1013 10 16 N/A
9:53 am 09:53 Cloudy 29 -1.7 24 -4.4 82 82 N N/A 29.91 1013 10 16 N/A
10:53 am 10:53 Cloudy 31 -0.6 25 -3.9 79 79 N N/A 29.91 1013 10 16 N/A
11:10 am 11:10 Cloudy 32 undefined 26 -3.3 79 79 NNW 3 6 29.93 1014 10 16 N/A
11:53 am 11:53 Cloudy 32 undefined 26 -3.3 79 79 WNW 5 7 29.91 1013 10 16 N/A
12:04 pm 12:04 Cloudy 32 undefined 26 -3.3 79 79 VRB 5 7 29.93 1014 10 16 N/A
12:35 pm 12:35 Cloudy 33 0.6 25 -3.9 72 72 WSW 3 6 29.92 1013 10 16 N/A
12:53 pm 12:53 Cloudy 33 0.6 25 -3.9 72 72 WSW 7 11 29.90 1013 10 16 N/A
1:53 pm 13:53 Cloudy 34 1.1 26 -3.3 73 73 SW 5 7 29.91 1013 10 16 N/A
2:53 pm 14:53 Cloudy 36 2.2 25 -3.9 64 64 VRB 6 9 29.90 1012 10 16 N/A
3:41 pm 15:41 Cloudy 36 2.2 24 -4.4 62 62 WSW 3 6 29.89 1012 10 16 N/A
3:53 pm 15:53 Cloudy 37 2.8 25 -3.9 62 62 WSW 3 6 29.88 1012 10 16 N/A
4:53 pm 16:53 Mostly Cloudy 38 3.3 25 -3.9 60 60 N N/A 29.86 1011 10 16 N/A
5:53 pm 17:53 Cloudy 37 2.8 26 -3.3 65 65 N 9 15 29.86 1011 10 16 N/A
6:53 pm 18:53 Sunny 34 1.1 26 -3.3 73 73 NNE 9 15 29.87 1012 10 16 N/A
7:25 pm 19:25 Mostly Cloudy 34 1.1 26 -3.3 73 73 NNE 6 9 29.89 1012 10 16 N/A
7:53 pm 19:53 Cloudy 32 undefined 26 -3.3 79 79 NE 6 9 29.88 1012 10 16 N/A
8:51 pm 20:51 Partly Cloudy 28 -2 25 -4 86 86 E 7 11 29.93 1014 10 16 N/A
8:53 pm 20:53 Mostly Clear 29 -1.7 25 -3.9 85 85 E 8 13 29.89 1012 10 16 N/A
9:53 pm 21:53 Clear 27 -2.8 24 -4.4 89 89 E 6 9 29.89 1012 10 16 N/A
10:53 pm 22:53 Clear 26 -3.3 23 -5 88 88 NE 5 7 29.88 1012 10 16 N/A
11:53 pm 23:53 Mostly Clear 25 -3.9 22 -5.6 88 88 NE 7 11 29.86 1011 10 16 N/A

Powered by AerisWeather